Lorain / Elyria, OH

2:29 PM EDT on May 24, 2017 (GMT -0400)
Lorain County Regional

Weather History for KLPR - June, 2014

Change the Weather History Date:

Monday, June 16, 2014

  Actual Average (KCLE) Record (KCLE)
Temperature  
Mean Temperature 80 °F -  
Max Temperature 91 °F 77 °F 96 °F (1952)
Min Temperature 71 °F 58 °F 39 °F (1961)
Cooling Degree Days 15    
Growing Degree Days 30 (Base 50)    
Moisture  
Dew Point 63 °F    
Average Humidity 58    
Maximum Humidity 79    
Minimum Humidity 42    
Precipitation  
Precipitation 0.03 in - - ()
Sea Level Pressure  
Sea Level Pressure 30.05 in    
Wind  
Wind Speed 7 mph (SW)    
Max Wind Speed 13 mph    
Max Gust Speed -    
Visibility 10 miles    
Events      
Averages and records for this station are not official NWS values.
T = Trace of Precipitation, MM = Missing Value Source: NWS Daily Summary

Daily Weather History Graph

Daily Weather History Graph

Search for Another Location

Airport or City:

Trip Planner

Search our weather history database for the weather conditions in past years. The results will help you decide how hot, cold, wet, or windy it might be!

Date:

Astronomy

Jun. 16, 2014 Rise Set
Actual Time 5:54 AM EDT 9:04 PM EDT
Civil Twilight 5:20 AM EDT 9:38 PM EDT
Nautical Twilight 4:37 AM EDT 10:21 PM EDT
Astronomical Twilight 3:45 AM EDT 11:13 PM EDT
Moon 11:52 PM EDT (6/16) 9:59 AM EDT (6/16)
Length of Visible Light 16h 17m
Length of Day
15h 09m
Waning Gibbous, 83% of the Moon is Illuminated
Jun 16
Waning Gibbous
Jun 19
Last Quarter
Jun 27
New
Jul 5
First Quarter
Jul 12
Full

Hourly Weather History & Observations

Time (EDT) Temp. Heat Index Dew Point Humidity Pressure Visibility Wind Dir Wind Speed Gust Speed Precip Events Conditions
12:53 AM 73.0 °F - 54.0 °F 51% 30.04 in 10.0 mi SSW 9.2 mph - N/A   Clear
1:53 AM 71.1 °F - 55.0 °F 57% 30.04 in 10.0 mi South 8.1 mph - N/A   Clear
2:53 AM 71.1 °F - 55.9 °F 59% 30.05 in 10.0 mi SSW 6.9 mph - N/A   Mostly Cloudy
3:53 AM 72.0 °F - 57.9 °F 61% 30.04 in 10.0 mi South 5.8 mph - N/A   Overcast
4:53 AM 72.0 °F - 59.0 °F 64% 30.04 in 10.0 mi South 5.8 mph - N/A   Mostly Cloudy
5:53 AM 72.0 °F - 60.1 °F 66% 30.06 in 10.0 mi SSW 3.5 mph - N/A   Partly Cloudy
6:53 AM 73.0 °F - 61.0 °F 66% 30.07 in 10.0 mi SW 4.6 mph - N/A   Partly Cloudy
7:53 AM 77.0 °F - 63.0 °F 62% 30.07 in 10.0 mi SW 8.1 mph - N/A   Clear
8:53 AM 81.0 °F 82.7 °F 64.9 °F 58% 30.09 in 10.0 mi West 10.4 mph - N/A   Clear
9:53 AM 82.9 °F 84.6 °F 64.9 °F 54% 30.08 in 10.0 mi West 9.2 mph - N/A   Mostly Cloudy
10:53 AM 86.0 °F 87.3 °F 64.0 °F 48% 30.08 in 10.0 mi West 12.7 mph - N/A   Clear
11:53 AM 88.0 °F 89.3 °F 64.0 °F 45% 30.08 in 10.0 mi West 8.1 mph - N/A   Scattered Clouds
12:53 PM 89.1 °F 90.0 °F 63.0 °F 42% 30.07 in 10.0 mi West 10.4 mph - N/A   Partly Cloudy
1:53 PM 88.0 °F 89.3 °F 64.0 °F 45% 30.06 in 10.0 mi NNW 5.8 mph - N/A   Mostly Cloudy
2:53 PM 78.1 °F - 69.1 °F 74% 30.06 in 10.0 mi WNW 4.6 mph - 0.03 in   Overcast
3:53 PM 82.9 °F 85.8 °F 68.0 °F 60% 30.05 in 10.0 mi WSW 10.4 mph - N/A   Mostly Cloudy
4:53 PM 87.1 °F 89.2 °F 66.0 °F 49% 30.03 in 10.0 mi WSW 5.8 mph - N/A   Clear
5:53 PM 86.0 °F 88.8 °F 66.9 °F 53% 30.03 in 10.0 mi SW 3.5 mph - N/A   Clear
6:53 PM 86.0 °F 88.2 °F 66.0 °F 51% 30.02 in 10.0 mi SW 3.5 mph - N/A   Partly Cloudy
7:53 PM 84.9 °F 87.6 °F 66.9 °F 55% 30.03 in 10.0 mi SSW 6.9 mph - N/A   Mostly Cloudy
9:53 PM 78.1 °F - 66.9 °F 68% 30.04 in 10.0 mi SW 5.8 mph - N/A   Clear
10:53 PM 75.9 °F - 66.9 °F 74% 30.03 in 10.0 mi SW 5.8 mph - N/A   Clear
11:53 PM 73.9 °F - 66.9 °F 79% 30.02 in 10.0 mi SW 4.6 mph - N/A   Clear